TimeMDT,TemperatureF,Dew PointF,Humidity,Sea Level PressureIn,VisibilityMPH,Wind Direction,Wind SpeedMPH,Gust SpeedMPH,PrecipitationIn,Events,Conditions,WindDirDegrees,DateUTC
12:15 AM,45.0,24.1,44,29.99,10.0,WSW,13.8,-,N/A,,Clear,240,2014-03-10 06:15:00
12:35 AM,44.2,24.6,46,29.98,10.0,WSW,10.4,-,N/A,,Clear,250,2014-03-10 06:35:00
12:55 AM,43.9,23.7,45,29.98,10.0,West,9.2,-,N/A,,Clear,270,2014-03-10 06:55:00
1:15 AM,40.3,25.0,54,29.98,10.0,WSW,8.1,-,N/A,,Clear,250,2014-03-10 07:15:00
1:35 AM,40.1,25.2,55,29.97,10.0,WSW,9.2,-,N/A,,Clear,250,2014-03-10 07:35:00
1:55 AM,39.2,25.0,57,29.97,10.0,WSW,9.2,-,N/A,,Clear,250,2014-03-10 07:55:00
2:15 AM,37.4,25.7,63,29.97,10.0,WSW,10.4,-,N/A,,Clear,240,2014-03-10 08:15:00
2:35 AM,37.0,25.5,63,29.98,10.0,WSW,10.4,-,N/A,,Clear,240,2014-03-10 08:35:00
2:55 AM,36.0,26.1,67,29.97,10.0,West,6.9,-,N/A,,Mostly Cloudy,260,2014-03-10 08:55:00
3:15 AM,35.6,25.7,67,29.96,10.0,West,5.8,-,N/A,,Scattered Clouds,260,2014-03-10 09:15:00
3:35 AM,35.2,26.1,69,29.96,10.0,WSW,9.2,-,N/A,,Clear,250,2014-03-10 09:35:00
3:55 AM,34.9,25.7,69,29.96,10.0,West,8.1,-,N/A,,Clear,270,2014-03-10 09:55:00
4:15 AM,36.5,25.7,65,29.96,10.0,WSW,6.9,-,N/A,,Clear,240,2014-03-10 10:15:00
4:35 AM,34.2,25.7,71,29.96,10.0,West,4.6,-,N/A,,Mostly Cloudy,260,2014-03-10 10:35:00
4:55 AM,33.4,25.3,72,29.96,10.0,West,4.6,-,N/A,,Scattered Clouds,260,2014-03-10 10:55:00
5:15 AM,35.4,25.2,66,29.96,10.0,SW,5.8,-,N/A,,Clear,230,2014-03-10 11:15:00
5:35 AM,34.7,25.5,69,29.96,10.0,WSW,6.9,-,N/A,,Scattered Clouds,240,2014-03-10 11:35:00
5:55 AM,34.7,25.2,68,29.96,10.0,WSW,8.1,-,N/A,,Scattered Clouds,250,2014-03-10 11:55:00
6:15 AM,34.9,25.3,68,29.96,10.0,WSW,9.2,-,N/A,,Scattered Clouds,240,2014-03-10 12:15:00
6:35 AM,34.3,25.7,71,29.96,10.0,WSW,8.1,-,N/A,,Scattered Clouds,250,2014-03-10 12:35:00
6:55 AM,34.7,25.7,70,29.96,10.0,WSW,8.1,-,N/A,,Scattered Clouds,240,2014-03-10 12:55:00
7:15 AM,34.9,25.7,69,29.96,10.0,WSW,9.2,-,N/A,,Clear,240,2014-03-10 13:15:00
7:35 AM,34.2,26.1,72,29.96,10.0,WSW,11.5,-,N/A,,Clear,240,2014-03-10 13:35:00
7:55 AM,34.9,26.2,71,29.96,10.0,WSW,6.9,-,N/A,,Clear,240,2014-03-10 13:55:00
8:15 AM,39.0,26.6,61,29.96,10.0,WSW,9.2,-,N/A,,Clear,250,2014-03-10 14:15:00
8:35 AM,42.3,27.5,56,29.95,10.0,West,5.8,-,N/A,,Clear,280,2014-03-10 14:35:00
8:55 AM,44.6,27.1,50,29.95,10.0,West,8.1,-,N/A,,Clear,270,2014-03-10 14:55:00
9:15 AM,47.7,28.0,47,29.95,10.0,SW,6.9,-,N/A,,Clear,230,2014-03-10 15:15:00
9:35 AM,52.3,29.1,41,29.95,10.0,WSW,4.6,-,N/A,,Clear,250,2014-03-10 15:35:00
9:55 AM,57.4,28.4,33,29.94,10.0,WSW,3.5,-,N/A,,Clear,250,2014-03-10 15:55:00
10:15 AM,62.2,25.7,25,29.94,10.0,SW,5.8,-,N/A,,Clear,220,2014-03-10 16:15:00
10:35 AM,65.5,24.1,21,29.93,10.0,WSW,5.8,-,N/A,,Clear,240,2014-03-10 16:35:00
10:55 AM,68.4,18.0,15,29.92,10.0,West,6.9,-,N/A,,Clear,280,2014-03-10 16:55:00
11:15 AM,69.6,16.3,13,29.91,10.0,West,5.8,-,N/A,,Clear,280,2014-03-10 17:15:00
11:35 AM,70.7,15.8,12,29.90,10.0,West,6.9,-,N/A,,Clear,260,2014-03-10 17:35:00
11:55 AM,72.0,14.0,11,29.89,10.0,West,4.6,-,N/A,,Clear,270,2014-03-10 17:55:00
12:15 PM,73.0,13.1,10,29.87,10.0,SW,4.6,-,N/A,,Clear,220,2014-03-10 18:15:00
12:35 PM,74.3,12.7,10,29.86,10.0,South,4.6,-,N/A,,Clear,170,2014-03-10 18:35:00
12:55 PM,75.2,11.5,9,29.84,10.0,SSW,8.1,-,N/A,,Clear,200,2014-03-10 18:55:00
1:15 PM,76.5,13.3,9,29.83,10.0,SSW,16.1,20.7,N/A,,Clear,210,2014-03-10 19:15:00
1:35 PM,75.7,13.3,9,29.81,10.0,South,11.5,23.0,N/A,,Clear,190,2014-03-10 19:35:00
1:55 PM,75.0,12.0,9,29.81,10.0,WSW,12.7,21.9,N/A,,Clear,240,2014-03-10 19:55:00
2:35 PM,74.1,11.7,9,29.77,10.0,SSW,12.7,17.3,N/A,,Clear,210,2014-03-10 20:35:00
2:55 PM,77.7,12.2,8,29.76,10.0,SW,11.5,20.7,N/A,,Clear,220,2014-03-10 20:55:00
3:15 PM,77.2,12.9,9,29.74,10.0,SSW,16.1,23.0,N/A,,Clear,200,2014-03-10 21:15:00
3:35 PM,77.2,13.6,9,29.74,10.0,South,13.8,26.5,N/A,,Clear,190,2014-03-10 21:35:00
3:55 PM,77.9,13.8,9,29.73,10.0,South,15.0,20.7,N/A,,Clear,190,2014-03-10 21:55:00
4:15 PM,77.5,12.6,8,29.72,10.0,South,17.3,26.5,N/A,,Clear,170,2014-03-10 22:15:00
4:35 PM,77.0,13.3,9,29.71,10.0,South,16.1,23.0,N/A,,Clear,180,2014-03-10 22:35:00
4:55 PM,76.1,14.2,10,29.70,10.0,South,18.4,26.5,N/A,,Clear,170,2014-03-10 22:55:00
5:15 PM,72.3,13.1,10,29.69,10.0,South,13.8,23.0,N/A,,Clear,180,2014-03-10 23:15:00
5:35 PM,71.6,14.0,11,29.69,10.0,South,15.0,18.4,N/A,,Mostly Cloudy,180,2014-03-10 23:35:00
5:55 PM,72.1,15.1,11,29.68,10.0,South,16.1,21.9,N/A,,Mostly Cloudy,170,2014-03-10 23:55:00
6:15 PM,70.2,15.3,12,29.69,10.0,South,15.0,19.6,N/A,,Scattered Clouds,170,2014-03-11 00:15:00
6:35 PM,67.8,15.4,13,29.68,10.0,SSE,11.5,16.1,N/A,,Clear,160,2014-03-11 00:35:00
6:55 PM,65.5,15.6,15,29.67,10.0,SSE,10.4,16.1,N/A,,Clear,160,2014-03-11 00:55:00
7:15 PM,62.6,17.8,18,29.66,10.0,SSE,10.4,-,N/A,,Clear,150,2014-03-11 01:15:00
7:35 PM,61.9,19.4,19,29.66,10.0,SSE,10.4,-,N/A,,Clear,150,2014-03-11 01:35:00
7:55 PM,59.9,21.7,23,29.65,10.0,SSE,9.2,-,N/A,,Clear,160,2014-03-11 01:55:00
8:15 PM,60.3,22.1,23,29.65,10.0,SSE,12.7,-,N/A,,Clear,160,2014-03-11 02:15:00
8:35 PM,59.5,21.6,23,29.64,10.0,South,11.5,-,N/A,,Clear,170,2014-03-11 02:35:00
8:55 PM,59.4,20.8,23,29.63,10.0,SSE,11.5,-,N/A,,Clear,160,2014-03-11 02:55:00
9:15 PM,60.1,19.4,21,29.62,10.0,SSE,13.8,20.7,N/A,,Clear,160,2014-03-11 03:15:00
9:35 PM,58.1,20.3,23,29.61,10.0,SSE,12.7,-,N/A,,Clear,150,2014-03-11 03:35:00
9:55 PM,56.1,20.7,25,29.60,10.0,SSE,11.5,-,N/A,,Clear,160,2014-03-11 03:55:00
10:15 PM,55.4,20.7,26,29.59,10.0,SSE,9.2,-,N/A,,Clear,160,2014-03-11 04:15:00
10:35 PM,54.7,20.1,26,29.59,10.0,Calm,Calm,-,N/A,,Clear,0,2014-03-11 04:35:00
10:55 PM,54.5,19.2,25,29.58,10.0,SE,3.5,-,N/A,,Clear,130,2014-03-11 04:55:00
11:15 PM,54.7,19.0,25,29.57,10.0,SSE,4.6,-,N/A,,Clear,160,2014-03-11 05:15:00
11:35 PM,54.9,19.2,25,29.56,10.0,SSE,6.9,-,N/A,,Clear,150,2014-03-11 05:35:00
11:55 PM,52.9,19.4,27,29.55,10.0,South,4.6,-,N/A,,Mostly Cloudy,180,2014-03-11 05:55:00